Flag for Germany Weather past 2 weeks in Goch, North Rhine-Westphalia, Germany

Now
73 °F

Passing clouds.


Feels Like: 77 °F
Forecast: 65 / 88 °F
Wind: 10 mph from Southeast

Location: Niederrhein

Current Time: Aug 5, 2015 at 12:56:49 PM

Latest Report: Aug 5, 2015 at 12:20 PM


Visibility: N/A

Pressure: 30.07 "Hg

Humidity: 50%

Dew point: 54 °F

Location of GochLocation

Historic Weather in Goch — Graph

°F

Goch temperature yesterday

Maximum temperature yesterday: 70 °F (at 4:50 AM)
Minimum temperature yesterday: 59 °F (at 10:50 PM)
Average temperature yesterday: 65 °F

Past Weeks' High & Low Weather Summary

 TemperatureHumidityPressure
High91 °F (Aug 3, 2:50 PM)100% (Jul 26, 6:20 AM)30.15 "Hg (Jul 26, 6:20 AM)
Low45 °F (Jul 31, 5:20 AM)26% (Aug 3, 5:20 PM)29.47 "Hg (Jul 25, 6:20 AM)
Average65 °F67%29.90 "Hg
* Reported Jul 21 11:20 AM — Aug 5 11:50 AM, Goch, Weather by CustomWeather, © 2015

Note: Actual official high and low records may vary slightly from our data, if they occured in-between our weather recording intervals... More about our weather records

Advertising

Goch weather history for previous 24 hours

 ConditionsComfort  
Time TempWeatherWind HumidityBarometerVisibility
11:50 AM
Wed, Aug 5
72 °FPassing clouds.7 mph50%30.07 "HgN/A
11:20 AM70 °FPassing clouds.6 mph46%30.09 "HgN/A
10:50 AM70 °FPassing clouds.5 mph50%30.09 "HgN/A
10:20 AM68 °FPassing clouds.6 mph56%30.09 "HgN/A
9:50 AM66 °FPassing clouds.6 mph60%30.09 "HgN/A
9:20 AM64 °FPassing clouds.5 mph64%30.09 "HgN/A
8:50 AM63 °FSunny.5 mph73%30.09 "Hg10 mi
8:20 AM61 °FSunny.6 mph77%30.09 "Hg10 mi
7:50 AM57 °FClear.6 mph82%30.09 "Hg10 mi
7:20 AM55 °FClear.5 mph88%30.09 "Hg10 mi
6:50 AM55 °FClear.5 mph88%30.09 "Hg10 mi
6:20 AM54 °FClear.5 mph88%30.07 "Hg10 mi
5:50 AM54 °FClear.5 mph88%30.07 "Hg10 mi
11:50 PM
Tue, Aug 4
59 °FClear.2 mph94%30.07 "Hg10 mi
11:20 PM61 °FClear.2 mph88%30.07 "Hg10 mi
10:50 PM59 °FScattered clouds.1 mph100%30.04 "HgN/A
10:20 PM63 °FScattered clouds.No wind94%30.04 "HgN/A
9:50 PM61 °FScattered clouds.No wind94%30.04 "HgN/A
9:20 PM63 °FSunny.2 mph88%30.04 "Hg10 mi
8:50 PM64 °FSunny.3 mph83%30.04 "Hg10 mi
8:20 PM66 °FSunny.3 mph78%30.04 "Hg10 mi
7:50 PM66 °FPassing clouds.6 mph78%30.01 "HgN/A
7:20 PM68 °FPassing clouds.6 mph73%30.01 "HgN/A
6:50 PM66 °FPassing clouds.8 mph83%30.01 "HgN/A
6:20 PM66 °FScattered clouds.9 mph78%30.01 "HgN/A
5:50 PM66 °FPassing clouds.8 mph83%29.98 "HgN/A
5:20 PM66 °FBroken clouds.9 mph78%30.01 "HgN/A
4:50 PM66 °FBroken clouds.10 mph88%29.98 "HgN/A
4:20 PM63 °FPartly sunny.8 mph94%29.98 "HgN/A
3:50 PM63 °FPartly sunny.10 mph88%29.98 "HgN/A
3:20 PM63 °FPartly sunny.13 mph88%29.98 "HgN/A
2:50 PM63 °FPartly sunny.10 mph94%29.95 "Hg6 mi
2:20 PM63 °FLight rain. Partly sunny.12 mph100%29.95 "Hg4 mi
1:50 PM64 °FLight rain. Partly sunny.12 mph94%29.95 "Hg4 mi
1:20 PM64 °FPartly sunny.12 mph100%29.92 "Hg5 mi
12:50 PM66 °FLight rain. Fog.6 mph100%29.92 "Hg2 mi
12:20 PM66 °FLight rain. Fog.6 mph100%29.92 "Hg3 mi
Weather by CustomWeather, © 2015

See weather overviewHow to use our weather pages